Weather History for KFWN - May, 2012

Change the Weather History Date:

Friday, May 25, 2012

  Actual Average Record
Temperature  
Mean Temperature 70 °F -  
Max Temperature 78 °F 73 °F 90 °F (1975)
Min Temperature 63 °F 48 °F 28 °F (1956)
Cooling Degree Days 5    
Growing Degree Days 20 (Base 50)    
Moisture  
Dew Point 64 °F    
Average Humidity 84    
Maximum Humidity 97    
Minimum Humidity 69    
Precipitation  
Precipitation 0.01 in - - ()
Sea Level Pressure  
Sea Level Pressure 30.16 in    
Wind  
Wind Speed 2 mph (South)    
Max Wind Speed 10 mph    
Max Gust Speed -    
Visibility 9 miles    
Events Rain    
Averages and records for this station are not official NWS values.
T = Trace of Precipitation, MM = Missing Value Source: NWS Daily Summary

Daily Weather History Graph

Daily Weather History Graph

Search for Another Location

Airport or City:

Trip Planner

Search our weather history database for the weather conditions in past years. The results will help you decide how hot, cold, wet, or windy it might be!

Date:

Astronomy

May. 25, 2012 Rise Set
Actual Time 5:31 AM EDT 8:19 PM EDT
Civil Twilight 4:59 AM EDT 8:52 PM EDT
Nautical Twilight 4:18 AM EDT 9:33 PM EDT
Astronomical Twilight 3:31 AM EDT 10:20 PM EDT
Moon 9:29 AM EDT (5/25) 11:52 PM EDT (5/25)
Length of Visible Light 15h 53m
Length of Day
14h 48m
Waxing Crescent, 19% of the Moon is Illuminated
May 25
Waxing Crescent
May 28
First Quarter
Jun 4
Full
Jun 11
Last Quarter
Jun 19
New

Hourly Weather History & Observations

Time (EDT) Temp. Dew Point Humidity Pressure Visibility Wind Dir Wind Speed Gust Speed Precip Events Conditions
12:53 AM 63.0 °F 61.0 °F 93% 30.18 in 10.0 mi Calm Calm - N/A   Overcast
1:53 AM 64.0 °F 62.1 °F 93% 30.17 in 8.0 mi Calm Calm - 0.00 in Rain Light Rain
2:34 AM 64.4 °F 62.6 °F 94% 30.16 in 8.0 mi Calm Calm - 0.01 in   Overcast
2:50 AM 64.4 °F 62.6 °F 94% 30.16 in 7.0 mi Calm Calm - 0.01 in   Overcast
2:53 AM 64.0 °F 62.1 °F 93% 30.16 in 7.0 mi Calm Calm - 0.01 in   Overcast
3:53 AM 64.0 °F 62.1 °F 93% 30.17 in 6.0 mi Calm Calm - N/A   Overcast
4:53 AM 64.0 °F 61.0 °F 90% 30.18 in 10.0 mi Calm Calm - N/A   Overcast
5:24 AM 64.4 °F 60.8 °F 88% 30.19 in 10.0 mi Calm Calm - N/A   Overcast
5:53 AM 63.0 °F 61.0 °F 93% 30.18 in 10.0 mi Calm Calm - N/A   Overcast
6:53 AM 64.0 °F 61.0 °F 90% 30.19 in 10.0 mi Calm Calm - N/A   Overcast
7:13 AM 64.4 °F 60.8 °F 88% 30.20 in 10.0 mi Calm Calm - N/A   Overcast
7:53 AM 64.9 °F 62.1 °F 90% 30.19 in 10.0 mi Calm Calm - N/A   Overcast
8:53 AM 66.0 °F 62.1 °F 87% 30.19 in 10.0 mi Calm Calm - N/A   Overcast
9:53 AM 66.0 °F 63.0 °F 90% 30.18 in 10.0 mi NE 3.5 mph - N/A   Overcast
10:32 AM 66.2 °F 62.6 °F 88% 30.19 in 10.0 mi Calm Calm - N/A   Overcast
10:53 AM 68.0 °F 64.0 °F 87% 30.18 in 10.0 mi Calm Calm - N/A   Overcast
11:53 AM 71.1 °F 64.9 °F 81% 30.18 in 10.0 mi South 3.5 mph - N/A   Overcast
12:26 PM 75.2 °F 66.2 °F 73% 30.16 in 10.0 mi Variable 5.8 mph - N/A   Mostly Cloudy
12:50 PM 75.2 °F 66.2 °F 73% 30.15 in 10.0 mi South 6.9 mph - N/A   Scattered Clouds
12:53 PM 75.9 °F 66.0 °F 71% 30.14 in 10.0 mi South 6.9 mph - N/A   Partly Cloudy
1:08 PM 75.2 °F 66.2 °F 73% 30.15 in 10.0 mi South 4.6 mph - N/A   Mostly Cloudy
1:53 PM 77.0 °F 66.9 °F 71% 30.14 in 10.0 mi South 8.1 mph - N/A   Mostly Cloudy
2:27 PM 75.2 °F 66.2 °F 73% 30.14 in 10.0 mi SSE 9.2 mph - N/A   Mostly Cloudy
2:53 PM 75.0 °F 66.0 °F 73% 30.13 in 10.0 mi SSE 10.4 mph - N/A   Mostly Cloudy
3:53 PM 75.0 °F 66.0 °F 73% 30.14 in 10.0 mi SSW 5.8 mph - N/A   Overcast
4:46 PM 75.2 °F 64.4 °F 69% 30.15 in 10.0 mi SSW 6.9 mph - N/A   Scattered Clouds
4:53 PM 77.0 °F 66.0 °F 69% 30.14 in 10.0 mi Variable 3.5 mph - N/A   Partly Cloudy
5:53 PM 77.0 °F 66.9 °F 71% 30.13 in 10.0 mi South 4.6 mph - N/A   Partly Cloudy
6:53 PM 75.9 °F 66.0 °F 71% 30.10 in 10.0 mi Calm Calm - N/A   Clear
7:53 PM 73.0 °F 66.0 °F 79% 30.10 in 9.0 mi South 4.6 mph - N/A   Clear
8:53 PM 72.0 °F 66.0 °F 81% 30.12 in 10.0 mi South 3.5 mph - N/A   Partly Cloudy
9:53 PM 66.9 °F 66.0 °F 97% 30.13 in 7.0 mi Calm Calm - N/A   Mostly Cloudy
10:53 PM 66.0 °F 64.9 °F 96% 30.12 in 3.0 mi Calm Calm - N/A   Clear
11:53 PM 66.0 °F 64.9 °F 96% 30.11 in 4.0 mi Calm Calm - N/A   Clear